Regional Weather Roundup
Issued by NWS Huntsville, AL

Home | Current Version | Previous Version | Text Only | Print | Product List | Glossary On
Versions: 1 2 3 4 5 6 7 8 9 10 11 12 13 14 15 16 17 18 19 20 21 22 23 24 25 26 27 28 29 30 31 32 33 34 35 36 37 38 39 40 41 42 43 44 45 46 47 48 49 50
000
ASUS44 KHUN 020510
RWRHUN

WEATHER ROUNDUP FOR THE TENNESSEE VALLEY
NATIONAL WEATHER SERVICE HUNTSVILLE AL
1200 AM CDT THU JUL 02 2015

ALZ001>004-020600-
NORTHWEST ALABAMA

CITY           SKY/WX    TMP DP  RH WIND       PRES   REMARKS
BANKHEAD NF      N/A     69  68  97 CALM        N/A
SHOALS AIRPORT CLEAR     72  69  90 S3        30.00R
SHOALS TVA RES   N/A     70 N/A N/A MISG        N/A
$$

ALZ005>007-016-020600-
NORTH CENTRAL ALABAMA

CITY           SKY/WX    TMP DP  RH WIND       PRES   REMARKS
DECATUR AP     PTCLDY    70  68  93 CALM      30.00S
HUNTSVILLE AP  CLOUDY    72  68  87 SE3       30.00F
HUN NWS/UAH      N/A     69  66  90 SE2         N/A
REDSTONE ARSN  CLOUDY    70  68  96 S3        30.00S
$$

ALZ008>010-020600-
NORTHEAST ALABAMA

CITY           SKY/WX    TMP DP  RH WIND       PRES   REMARKS
FORT PAYNE     NOT AVBL
SCOTTSBORO AP  CLOUDY    68  68 100 CALM      30.02F FOG
SCOTTSBORO HCN   N/A     68 N/A N/A MISG        N/A
VALLEY HEAD      N/A     68 N/A N/A MISG        N/A
$$

TNZ076-096-097-020600-
SOUTHEASTERN MIDDLE TENNESSEE

CITY           SKY/WX    TMP DP  RH WIND       PRES   REMARKS
TULLAHOMA      MOCLDY    66  66 100 CALM      30.02S
WINCHESTER     MOCLDY    68  66  94 SE3       30.01F
$$

...SURROUNDING SITES...

CITY           SKY/WX    TMP DP  RH WIND       PRES   REMARKS
ATLANTA        CLOUDY    70  66  87 W3        30.06S
ANNISTON       CLOUDY    70  67  90 CALM      30.04F
BIRMINGHAM     CLOUDY    71  71 100 SE3       30.03F
CHATTANOOGA      N/A     68  67  96 SW3       30.03F
CORINTH        FAIR      75  72  88 S3        29.95R
DALTON         NOT AVBL
GADSDEN        MOCLDY   N/A N/A N/A CALM      30.01F
GOLDEN TRNGL   CLEAR     75  70  83 SW7       29.98S
HALEYVILLE     FAIR      71  70  97 CALM      30.03F
JACKSON TN     MOCLDY    78  73  84 S8        29.93R
MEMPHIS        PTCLDY    82  70  66 S9G18     29.93R
NASHVILLE      LGT RAIN  69  69 100 S9        29.96F
OXFORD MS      FAIR      75  70  83 SW6       29.98R
ROME           CLOUDY    69  68  96 CALM      30.03F
SAVANNAH       CLEAR     75  32  20 S3        29.97R
TUPELO         CLEAR     77  72  84 SW5       29.97R
TUSCALOOSA     CLEAR     77  72  84 S7        30.01F
$$

...GULF COAST WEATHER...

CITY           SKY/WX    TMP DP  RH WIND       PRES   REMARKS
GULFPORT       MOCLDY    74  72  93 W3        30.08F
PASCAGOULA     MOCLDY    73  73 100 CALM      30.07F
MOBILE         PTCLDY    72  71  97 SW5       30.08F
PENSACOLA      MOCLDY    74  70  87 NW3       30.07F
DESTIN         PTCLDY    80  70  71 W5        30.08F
PANAMA CITY    CLEAR     81  75  82 W9        30.09F
APPALACHICOLA  CLEAR     83  76  79 W5        30.10F HX  91
$$




USA.gov is the U.S. government's official web portal to all federal, state and local government web resources and services.